Regional Weather Roundup
Issued by NWS

Home | Current Version | Previous Version | Graphics & Text | Print | Product List | Glossary On
Versions: 1 2 3 4 5 6 7 8 9 10 11 12 13 14 15 16 17 18 19 20 21 22 23 24 25 26 27 28 29 30 31 32 33 34 35 36 37 38 39 40 41 42 43 44 45 46 47 48 49 50
000
ASUS45 KCYS 252310
RWRWY

WYOMING REGIONAL WEATHER ROUNDUP
NATIONAL WEATHER SERVICE CHEYENNE WY
500 PM MDT SAT APR 25 2015

NOTE:  "FAIR" INDICATES FEW OR NO CLOUDS BELOW 12,000 FEET
WITH NO SIGNIFICANT WEATHER AND/OR OBSTRUCTIONS TO VISIBILITY.

WYZ001-260000-
YELLOWSTONE NATIONAL PARK

CITY           SKY/WX    TMP DP  RH WIND       PRES   REMARKS
LK YELLOWSTONE   N/A     40  23  50 VRB6      29.82S
W YELLOWSTONE  NOT AVBL

$$
WYZ002>013-054>058-071-098>099-260000-
NORTHERN WYOMING

CITY           SKY/WX    TMP DP  RH WIND       PRES   REMARKS
JACKSON        CLOUDY    48  21  34 S9        29.77F
CODY           CLOUDY    46  34  61 N8        29.79S
GREYBULL       FAIR      57  32  38 NW9       29.75S
WORLAND        PTSUNNY   56  34  43 N9        29.75F
SHERIDAN       CLOUDY    46  35  65 NW16      29.82R
BUFFALO        FAIR      45  34  65 N20G29    29.81R
GILLETTE       PTSUNNY   45  35  68 N14       29.80R
HULETT         CLOUDY    43  39  87 NW9       29.81R
NEWCASTLE      MOCLDY    50  45  81 N9        29.74R

$$
WYZ014>020-022>026-101>103-260000-
CENTRAL WYOMING

CITY           SKY/WX    TMP DP  RH WIND       PRES   REMARKS
BIG PINEY      FAIR      50  20  30 VRB5      29.75F
PINEDALE       FAIR      46  25  42 CALM      29.77S
DUBOIS         MOCLDY    45  18  33 NW14      29.74S
LANDER         PTSUNNY   53  38  56 NE10      29.70R
RIVERTON       PTSUNNY   52  38  58 NE14      29.72S
CASPER         FAIR      56  38  50 N17G25    29.72S
DOUGLAS        FAIR      61  27  27 NW12      29.73S

$$
WYZ021-027>030-104>119-260000-
SOUTHERN WYOMING

CITY           SKY/WX    TMP DP  RH WIND       PRES   REMARKS
EVANSTON       CLOUDY    47  26  44 SW10G17   29.72S
KEMMERER       FAIR      48  21  34 CALM      29.74F
FORT BRIDGER   CLOUDY    50  27  40 E15       29.76R
ROCK SPRINGS   CLOUDY    51  23  33 VRB6      29.74F
DIXON          FAIR      54  29  39 SE6       29.79F
RAWLINS        CLOUDY    52  26  36 W8        29.77S
SARATOGA       FAIR      54  27  35 W9G17     29.79F
LARAMIE        CLOUDY    52  35  52 NE8       29.78F
CHEYENNE       CLOUDY    51  39  63 N10       29.75F
TORRINGTON     PTSUNNY   63  31  30 W22G30    29.71R
PINE BLUFFS    CLOUDY    55  43  62 NW13G28   29.75R THUNDER

$$



USA.gov is the U.S. government's official web portal to all federal, state and local government web resources and services.